HST 1 20580U 90037B 26036.89949414 .00009561 00000+0 32208-3 0 9997 2 20580 28.4665 256.7833 0001910 115.5138 244.5655 15.28971962768447 POLAR 1 23802U 96013A 26036.32908377 .00000220 00000+0 00000+0 0 9992 2 23802 79.7029 228.5515 6336729 213.5400 82.2335 1.29845953143142 SWAS 1 25560U 98071A 26036.84324710 .00005683 00000+0 36948-3 0 9993 2 25560 69.8948 205.9744 0002731 107.9688 252.1773 15.08546747477458 CXO 1 25867U 99040B 26034.50897227 .00000739 00000+0 00000+0 0 9992 2 25867 54.0018 120.6888 8050674 310.8579 0.1951 0.37804724 16822 XMM-NEWTON 1 25989U 99066A 26037.70800051 .00000058 00000+0 00000+0 0 9993 2 25989 65.1412 284.7039 4721797 67.1949 359.9288 0.50133004 22352 TERRA 1 25994U 99068A 26036.94474034 .00000629 00000+0 13740-3 0 9997 2 25994 97.9660 91.5813 0000959 293.0412 168.1947 14.60979682390447 CLUSTER II-FM7 (SAMBA) 1 26410U 00041A 26023.07807862 .00004677 00000+0 00000+0 0 9991 2 26410 148.3592 29.7174 8835954 245.6118 359.2301 0.44786329 19664 CLUSTER II-FM8 (TANGO) 1 26464U 00045B 26019.78457485 .00005071 00000+0 00000+0 0 9998 2 26464 148.5838 29.9991 8833034 245.7591 359.3805 0.44425532 19644 ODIN 1 26702U 01007A 26036.98030005 .00050984 00000+0 73935-3 0 9992 2 26702 97.4134 71.7874 0001417 275.9347 84.1746 15.55692773368907 TIMED 1 26998U 01055B 26036.72540630 .00002664 00000+0 24758-3 0 9995 2 26998 74.0695 139.6494 0002133 311.9628 48.1374 14.94916245311177 CORIOLIS 1 27640U 03001A 26036.91903407 .00000193 00000+0 11156-3 0 9992 2 27640 98.7155 45.7959 0013193 228.2373 131.7676 14.19899628195596 SORCE 1 27651U 03004A 26036.93741419 .00005179 00000+0 38953-3 0 9995 2 27651 39.9906 290.0519 0017047 193.8665 166.1662 15.02827561252141 MOST 1 27843U 03031D 26036.91999719 .00000124 00000+0 76863-4 0 9992 2 27843 98.7077 46.4617 0008763 271.8847 88.1327 14.21290166172060 SCISAT 1 1 27858U 03036A 26036.53518662 .00001142 00000+0 15110-3 0 9993 2 27858 73.9288 72.8869 0007003 179.4312 180.6874 14.81248998211952 SWIFT 1 28485U 04047A 26036.46254863 .00081347 00000+0 10936-2 0 9990 2 28485 20.5538 111.8944 0002292 281.4874 78.5312 15.56166007166230 HINODE (SOLAR-B) 1 29479U 06041A 26036.95458720 .00001019 00000+0 18428-3 0 9995 2 29479 98.0635 55.0032 0017193 348.8745 11.2077 14.68419089 35612 SHIJIAN-6 02A (SJ-6 02A) 1 29505U 06046A 26037.01763051 .00008032 00000+0 43094-3 0 9993 2 29505 97.6551 77.1315 0002210 203.7632 156.3498 15.15224279 52391 SHIJIAN-6 02B (SJ-6 02B) 1 29506U 06046B 26036.96419749 .00002807 00000+0 22522-3 0 9996 2 29506 97.6994 66.9736 0013473 142.5309 217.6857 15.00833052 51051 FGRST (GLAST) 1 33053U 08029A 26036.38633217 .00005723 00000+0 22198-3 0 9994 2 33053 25.5833 39.0843 0008224 209.1405 150.8675 15.23066726975715 SDO 1 36395U 10005A 26033.15753127 -.00000091 00000+0 00000+0 0 9996 2 36395 34.3665 88.3951 0000722 125.3144 233.1380 1.00276361 58706 CRYOSAT 2 1 36508U 10013A 26036.92673358 .00000208 00000+0 50857-4 0 9995 2 36508 92.0222 245.5175 0002511 82.8763 277.2730 14.51903651839039 X-SAT 1 37389U 11015C 26036.93935311 .00000251 00000+0 12408-3 0 9994 2 37389 98.3380 20.3137 0014434 13.1174 347.0379 14.25158181768989 GCOM-W1 (SHIZUKU) 1 38337U 12025A 26036.79915323 .00001043 00000+0 24152-3 0 9994 2 38337 98.2273 339.3077 0001404 80.3473 309.0816 14.57134793729901 NUSTAR 1 38358U 12031A 26037.00002315 .00014241 00000+0 86021-3 0 9994 2 38358 6.0263 297.1201 0008814 312.6455 192.8687 15.07254910 1304 NEOSSAT 1 39089U 13009D 26036.91776857 .00000288 00000+0 11438-3 0 9996 2 39089 98.4107 220.0910 0009879 278.6955 81.3112 14.35767561677909 BRITE-AUSTRIA 1 39091U 13009F 26036.49380398 .00000334 00000+0 12838-3 0 9990 2 39091 98.3920 219.2119 0009070 273.9039 86.1110 14.36476213678149 IRIS 1 39197U 13033A 26036.97078661 .00002408 00000+0 28351-3 0 9995 2 39197 97.9393 236.6059 0025221 30.7876 329.4812 14.85538118680899 HISAKI (SPRINT-A) 1 39253U 13049A 26036.73873708 .00000110 00000+0 64336-4 0 9996 2 39253 29.7180 168.2942 0136826 31.0660 329.7921 13.55527613613578 CASSIOPE 1 39265U 13055A 26036.96777272 .00051091 -35192-6 63679-3 0 9990 2 39265 80.9162 225.0008 0325365 141.9124 220.5602 15.16047232647720 STSAT-3 1 39422U 13066G 26036.96750741 .00005423 00000+0 41891-3 0 9991 2 39422 97.6082 9.2124 0014526 113.8408 246.4341 15.01860038664502 SWARM B 1 39451U 13067A 26036.96525043 .00006559 00000+0 24244-3 0 9993 2 39451 87.7446 22.1033 0002994 99.9379 260.2208 15.27537151663205 SWARM A 1 39452U 13067B 26036.92492026 .00015842 00000+0 30241-3 0 9993 2 39452 87.3333 104.9162 0002883 93.1595 266.9994 15.48001087685927 SWARM C 1 39453U 13067C 26036.92481945 .00015696 00000+0 29960-3 0 9995 2 39453 87.3329 103.4992 0002894 92.6606 267.4985 15.48002547685880 BRITE-CA1 (TORONTO) 1 40020U 14033L 26036.89336286 .00001359 00000+0 21260-3 0 9990 2 40020 97.9525 168.4294 0078499 338.1501 21.6365 14.72377561622890 OCO 2 1 40059U 14035A 26036.92813186 .00000832 00000+0 19470-3 0 9992 2 40059 98.2278 340.1794 0001511 73.0888 287.0476 14.57138009616933 BRITE-PL2 (HEWELIUSZ) 1 40119U 14049B 26036.86154348 .00004246 00000+0 40301-3 0 9995 2 40119 97.8983 148.0146 0014136 179.6888 180.4343 14.94007685621834 MMS 1 1 40482U 15011A 26037.00002315 -.00001856 00000+0 00000+0 0 9994 2 40482 70.3792 350.6074 8450472 164.6382 237.8055 0.28339448 1386 MMS 2 1 40483U 15011B 26037.00002315 -.00001857 00000+0 00000+0 0 9996 2 40483 70.3757 350.5984 8452049 164.6543 237.7706 0.28339433 1384 MMS 3 1 40484U 15011C 26037.00002315 -.00001857 00000+0 00000+0 0 9997 2 40484 70.3817 350.6145 8451922 164.6499 237.7670 0.28339435 1383 MMS 4 1 40485U 15011D 26037.00002315 -.00001858 00000+0 00000+0 0 9999 2 40485 70.3825 350.6061 8453201 164.6363 237.8013 0.28339396 1380 ASTROSAT 1 40930U 15052A 26036.96355560 .00002602 00000+0 23648-3 0 9990 2 40930 5.9980 19.7172 0008406 317.7949 42.1532 14.82202000560326 DAMPE 1 41173U 15078A 26036.95891112 .00002441 00000+0 85583-4 0 9993 2 41173 97.4567 41.8105 0012007 173.5502 186.5895 15.30380892564475 PISAT 1 41784U 16059B 26036.94164803 .00001726 00000+0 30292-3 0 9991 2 41784 97.8178 43.0661 0027684 264.7535 95.0512 14.68688414500473 HXMT (HUIYAN) 1 42758U 17034A 26036.91491457 .00010152 00000+0 50890-3 0 9991 2 42758 43.0133 193.2692 0031156 31.5486 328.7222 15.17043004477714 FLYING LAPTOP 1 42831U 17042G 26036.96653674 .00006566 00000+0 52692-3 0 9994 2 42831 97.4216 198.0709 0015465 205.3064 154.7405 15.00298275466779 ZHANGHENG 1-01 (CSES-1) 1 43194U 18015C 26036.94081667 .00019274 00000+0 86462-3 0 9995 2 43194 97.6704 200.0938 0016127 13.0430 347.1219 15.21131413444692 SALSAT 1 46495U 20068K 26036.97412363 .00013707 00000+0 51090-3 0 9991 2 46495 97.8835 32.2877 0011761 50.0949 310.1321 15.27510179295311 IXPE 1 49954U 21121A 26036.91670139 .00016839 00000+0 98179-3 0 9994 2 49954 0.2289 229.1550 0007270 252.9032 13.9979 15.08767533 5825